Sarasota, FL

9:43 PM EST on December 15, 2019 (GMT -0500)
Sarasota-bradenton

Weather History for KSRQ - September, 2019

Change the Weather History Date:

Thursday, September 12, 2019

  Actual Average Record
Temperature  
Mean Temperature 86 °F 82 °F  
Max Temperature 96 °F 89 °F 94 °F (1988)
Min Temperature 77 °F 75 °F 65 °F (1956)
Degree Days  
Heating Degree Days 0 0  
Month to date heating degree days 0 0  
Since 1 July heating degree days 0 0  
Cooling Degree Days 22 17  
Month to date cooling degree days 262 204  
Year to date cooling degree days 3120 2501  
Growing Degree Days 36 (Base 50)    
Moisture  
Dew Point 72 °F    
Average Humidity 68    
Maximum Humidity 85    
Minimum Humidity 43    
Precipitation  
Precipitation T in 0.25 in 3.03 in (2009)
Month to date precipitation 0.83 3.60  
Year to date precipitation 42.22 41.93  
Sea Level Pressure  
Sea Level Pressure 29.98 in    
Wind  
Wind Speed 7 mph ()    
Max Wind Speed 24 mph    
Max Gust Speed 32 mph    
Visibility 10.0 miles    
Events Rain    
T = Trace of Precipitation, MM = Missing Value Source: Averaged Metar Reports

Daily Weather History Graph

Daily Weather History Graph

Search for Another Location

Airport or City:

Astronomy

Sep. 12, 2019 Rise Set
Actual Time 7:14 AM EDT 7:38 PM EDT
Civil Twilight 6:50 AM EDT 8:01 PM EDT
Nautical Twilight 6:23 AM EDT 8:29 PM EDT
Astronomical Twilight 5:55 AM EDT 8:56 PM EDT
Moon 7:10 PM EDT (9/12) 5:47 AM EDT (9/12)
Length of Visible Light 13h 11m
Length of Day
12h 24m
Waxing Gibbous, 98% of the Moon is Illuminated
Sep 12
Waxing Gibbous
Sep 14
Full
Sep 21
Last Quarter
Sep 28
New
Oct 5
First Quarter

Hourly Weather History & Observations

Time (EDT) Temp. Heat Index Dew Point Humidity Pressure Visibility Wind Dir Wind Speed Gust Speed Precip Events Conditions
12:53 AM 80.1 °F 83.8 °F 72.0 °F 76% 30.03 in 10.0 mi NE 4.6 mph - N/A   Clear
1:53 AM 79.0 °F - 72.0 °F 79% 30.02 in 10.0 mi NE 5.8 mph - N/A   Clear
2:53 AM 79.0 °F - 72.0 °F 79% 30.00 in 10.0 mi NE 4.6 mph - N/A   Clear
3:53 AM 79.0 °F - 73.0 °F 82% 29.98 in 10.0 mi NE 5.8 mph - N/A   Clear
4:53 AM 78.1 °F - 73.0 °F 84% 29.97 in 10.0 mi NE 5.8 mph - N/A   Clear
5:53 AM 78.1 °F - 73.0 °F 84% 29.98 in 10.0 mi NE 5.8 mph - N/A   Clear
6:53 AM 78.1 °F - 73.0 °F 84% 29.99 in 10.0 mi NE 4.6 mph - N/A   Clear
7:53 AM 79.0 °F - 73.9 °F 84% 29.99 in 10.0 mi NE 5.8 mph - N/A   Clear
8:53 AM 82.0 °F 88.6 °F 75.0 °F 79% 30.01 in 10.0 mi NE 10.4 mph - N/A   Clear
9:53 AM 86.0 °F 95.1 °F 75.0 °F 70% 30.01 in 10.0 mi NE 10.4 mph - N/A   Partly Cloudy
10:53 AM 88.0 °F 96.5 °F 73.9 °F 63% 30.02 in 10.0 mi NE 10.4 mph - N/A   Mostly Cloudy
11:53 AM 89.1 °F 97.0 °F 73.0 °F 59% 30.01 in 10.0 mi East 15.0 mph 19.6 mph N/A   Scattered Clouds
12:53 PM 91.9 °F 100.7 °F 73.0 °F 54% 29.99 in 10.0 mi NE 11.5 mph - N/A   Scattered Clouds
1:53 PM 93.9 °F 102.1 °F 72.0 °F 49% 29.97 in 10.0 mi NE 12.7 mph - N/A   Scattered Clouds
2:53 PM 95.0 °F 102.5 °F 71.1 °F 46% 29.94 in 10.0 mi ENE 11.5 mph - N/A   Partly Cloudy
3:53 PM 93.9 °F 100.8 °F 71.1 °F 47% 29.93 in 10.0 mi ENE 19.6 mph 25.3 mph N/A   Mostly Cloudy
4:53 PM 95.0 °F 100.7 °F 69.1 °F 43% 29.91 in 10.0 mi ENE 15.0 mph 20.7 mph N/A   Partly Cloudy
5:53 PM 88.0 °F 93.8 °F 71.1 °F 57% 29.92 in 10.0 mi NE 15.0 mph 32.2 mph 0.00 in Rain Light Rain
6:53 PM 88.0 °F 93.8 °F 71.1 °F 57% 29.93 in 10.0 mi ENE 10.4 mph 20.7 mph 0.00 in   Clear
7:53 PM 84.9 °F 89.4 °F 70.0 °F 61% 29.94 in 10.0 mi ENE 12.7 mph 19.6 mph N/A   Clear
8:53 PM 84.0 °F 89.6 °F 72.0 °F 67% 29.95 in 10.0 mi ENE 10.4 mph - N/A   Clear
9:53 PM 82.9 °F 88.8 °F 73.0 °F 72% 29.96 in 10.0 mi ENE 8.1 mph - N/A   Clear
10:53 PM 82.0 °F 87.4 °F 73.0 °F 74% 29.99 in 10.0 mi ENE 9.2 mph - N/A   Clear
11:53 PM 81.0 °F 86.2 °F 73.9 °F 79% 29.98 in 10.0 mi NE 5.8 mph - N/A   Clear